• In Uzbekistan
  • List of Countries
  • For 7 days
  • Water Temperature
  • Satellite Maps
  • Weather Map
  • Weather Widgets
  • user-avatar
    Login

    Hourly Weather Bangarmau

    Today, 15 December, Friday

    Time Temperature Precipitation Wind Pressure Humidity
    00:00 +17°C° 0 mm 2 mps 751 mmHg 41%
    01:00 +17°C° 0 mm 2 mps 750 mmHg 42%
    02:00 +17°C° 0 mm 3 mps 750 mmHg 44%
    03:00 +16°C° 0 mm 3 mps 750 mmHg 45%
    04:00 +16°C° 0 mm 3 mps 751 mmHg 46%
    05:00 +16°C° 0 mm 3 mps 750 mmHg 47%
    06:00 +16°C° 0 mm 3 mps 751 mmHg 47%
    07:00 +17°C° 0 mm 3 mps 751 mmHg 46%
    08:00 +17°C° 0 mm 4 mps 752 mmHg 46%
    09:00 +19°C° 0 mm 3 mps 752 mmHg 40%
    10:00 +21°C° 0 mm 3 mps 752 mmHg 34%
    11:00 +26°C° 0 mm 3 mps 752 mmHg 25%
    12:00 +26°C° 0 mm 3 mps 752 mmHg 24%
    13:00 +27°C° 0 mm 4 mps 751 mmHg 24%
    14:00 +28°C° 0 mm 4 mps 751 mmHg 24%
    15:00 +26°C° 0 mm 3 mps 751 mmHg 26%
    16:00 +25°C° 0 mm 3 mps 751 mmHg 28%
    17:00 +23°C° 0 mm 2 mps 750 mmHg 30%
    18:00 +21°C° 0 mm 3 mps 751 mmHg 30%
    19:00 +21°C° 0 mm 3 mps 751 mmHg 31%
    20:00 +20°C° 0 mm 3 mps 751 mmHg 31%
    21:00 +20°C° 0 mm 3 mps 751 mmHg 33%
    22:00 +19°C° 0 mm 3 mps 751 mmHg 34%
    23:00 +18°C° 0 mm 3 mps 751 mmHg 36%

    Tomorrow, 16 December, Saturday

    Time Temperature Precipitation Wind Pressure Humidity
    00:00 +18°C° 0 mm 3 mps 751 mmHg 37%
    01:00 +17°C° 0 mm 3 mps 751 mmHg 39%
    02:00 +17°C° 0 mm 3 mps 751 mmHg 40%
    03:00 +16°C° 0 mm 3 mps 751 mmHg 40%
    04:00 +16°C° 0 mm 3 mps 751 mmHg 40%
    05:00 +14°C° 0 mm 3 mps 751 mmHg 41%
    06:00 +16°C° 0 mm 3 mps 752 mmHg 39%
    07:00 +15°C° 0 mm 4 mps 752 mmHg 38%
    08:00 +17°C° 0 mm 4 mps 753 mmHg 37%
    09:00 +19°C° 0 mm 4 mps 753 mmHg 33%
    10:00 +21°C° 0 mm 4 mps 753 mmHg 30%
    11:00 +23°C° 0 mm 4 mps 753 mmHg 27%
    12:00 +25°C° 0 mm 4 mps 752 mmHg 25%
    13:00 +25°C° 0 mm 5 mps 752 mmHg 24%
    14:00 +26°C° 0 mm 5 mps 751 mmHg 23%
    15:00 +23°C° 0 mm 4 mps 751 mmHg 25%
    16:00 +22°C° 0 mm 4 mps 751 mmHg 27%
    17:00 +20°C° 0 mm 3 mps 751 mmHg 30%
    18:00 +19°C° 0 mm 3 mps 751 mmHg 30%
    19:00 +18°C° 0 mm 3 mps 752 mmHg 31%
    20:00 +18°C° 0 mm 3 mps 752 mmHg 32%
    21:00 +17°C° 0 mm 3 mps 752 mmHg 33%
    22:00 +16°C° 0 mm 3 mps 752 mmHg 33%
    23:00 +16°C° 0 mm 3 mps 753 mmHg 34%

    Day after tomorrow, 17 December, Sunday

    Time Temperature Precipitation Wind Pressure Humidity
    00:00 +14°C° 0 mm 3 mps 752 mmHg 34%
    01:00 +14°C° 0 mm 3 mps 752 mmHg 34%
    02:00 +14°C° 0 mm 3 mps 752 mmHg 35%
    03:00 +13°C° 0 mm 3 mps 752 mmHg 35%
    04:00 +13°C° 0 mm 3 mps 752 mmHg 36%
    05:00 +12°C° 0 mm 3 mps 752 mmHg 37%
    06:00 +13°C° 0 mm 3 mps 752 mmHg 36%
    07:00 +14°C° 0 mm 3 mps 753 mmHg 36%
    08:00 +14°C° 0 mm 4 mps 754 mmHg 36%
    09:00 +17°C° 0 mm 4 mps 754 mmHg 32%
    10:00 +20°C° 0 mm 4 mps 754 mmHg 28%
    11:00 +22°C° 0 mm 4 mps 754 mmHg 25%
    12:00 +23°C° 0 mm 4 mps 753 mmHg 24%
    13:00 +25°C° 0 mm 4 mps 752 mmHg 23%
    14:00 +25°C° 0 mm 4 mps 752 mmHg 22%
    15:00 +24°C° 0 mm 3 mps 751 mmHg 24%
    16:00 +21°C° 0 mm 3 mps 751 mmHg 27%
    17:00 +20°C° 0 mm 2 mps 751 mmHg 30%
    18:00 +19°C° 0 mm 2 mps 751 mmHg 31%
    19:00 +18°C° 0 mm 2 mps 752 mmHg 32%
    20:00 +18°C° 0 mm 2 mps 752 mmHg 32%
    21:00 +17°C° 0 mm 2 mps 752 mmHg 33%
    22:00 +17°C° 0 mm 2 mps 752 mmHg 33%
    23:00 +16°C° 0 mm 2 mps 752 mmHg 34%

    18 December, Monday

    Time Temperature Precipitation Wind Pressure Humidity
    00:00 +16°C° 0 mm 3 mps 751 mmHg 34%
    01:00 +14°C° 0 mm 3 mps 751 mmHg 34%
    02:00 +14°C° 0 mm 3 mps 751 mmHg 33%
    03:00 +15°C° 0 mm 2 mps 751 mmHg 33%
    04:00 +14°C° 0 mm 2 mps 751 mmHg 34%
    05:00 +14°C° 0 mm 2 mps 751 mmHg 34%
    06:00 +14°C° 0 mm 2 mps 752 mmHg 34%
    07:00 +15°C° 0 mm 2 mps 752 mmHg 34%
    08:00 +15°C° 0 mm 2 mps 753 mmHg 34%
    09:00 +18°C° 0 mm 2 mps 753 mmHg 31%
    10:00 +20°C° 0 mm 2 mps 753 mmHg 27%
    11:00 +22°C° 0 mm 3 mps 753 mmHg 24%
    12:00 +24°C° 0 mm 3 mps 752 mmHg 23%
    13:00 +25°C° 0 mm 3 mps 752 mmHg 22%
    14:00 +26°C° 0 mm 3 mps 751 mmHg 21%
    15:00 +25°C° 0 mm 3 mps 751 mmHg 24%
    16:00 +23°C° 0 mm 2 mps 750 mmHg 26%
    17:00 +20°C° 0 mm 2 mps 750 mmHg 29%
    18:00 +20°C° 0 mm 2 mps 751 mmHg 30%
    19:00 +20°C° 0 mm 1 mps 751 mmHg 31%
    20:00 +19°C° 0 mm 1 mps 752 mmHg 32%
    21:00 +19°C° 0 mm 1 mps 752 mmHg 33%
    22:00 +18°C° 0 mm 1 mps 752 mmHg 34%
    23:00 +18°C° 0 mm 1 mps 752 mmHg 35%

    19 December, Tuesday

    Time Temperature Precipitation Wind Pressure Humidity
    00:00 +17°C° 0 mm 2 mps 751 mmHg 36%
    01:00 +16°C° 0 mm 2 mps 751 mmHg 36%
    02:00 +16°C° 0 mm 2 mps 750 mmHg 37%
    03:00 +15°C° 0 mm 2 mps 750 mmHg 37%
    04:00 +15°C° 0 mm 2 mps 751 mmHg 38%
    05:00 +15°C° 0 mm 2 mps 751 mmHg 38%
    06:00 +15°C° 0 mm 2 mps 751 mmHg 38%
    07:00 +16°C° 0 mm 2 mps 752 mmHg 38%
    08:00 +17°C° 0 mm 2 mps 753 mmHg 38%
    09:00 +19°C° 0 mm 2 mps 753 mmHg 34%
    10:00 +21°C° 0 mm 2 mps 753 mmHg 30%
    11:00 +24°C° 0 mm 2 mps 753 mmHg 26%
    12:00 +25°C° 0 mm 2 mps 752 mmHg 25%
    13:00 +26°C° 0 mm 2 mps 752 mmHg 24%
    14:00 +26°C° 0 mm 2 mps 751 mmHg 22%
    15:00 +25°C° 0 mm 2 mps 751 mmHg 25%
    16:00 +24°C° 0 mm 2 mps 751 mmHg 28%
    17:00 +22°C° 0 mm 1 mps 751 mmHg 31%
    18:00 +22°C° 0 mm 1 mps 751 mmHg 31%
    19:00 +21°C° 0 mm 1 mps 751 mmHg 31%
    20:00 +21°C° 0 mm 1 mps 752 mmHg 32%
    21:00 +20°C° 0 mm 1 mps 752 mmHg 32%
    22:00 +20°C° 0 mm 1 mps 752 mmHg 33%
    23:00 +19°C° 0 mm 1 mps 752 mmHg 33%

    20 December, Wednesday

    Time Temperature Precipitation Wind Pressure Humidity
    00:00 +19°C° 0 mm 1 mps 752 mmHg 33%
    01:00 +19°C° 0 mm 1 mps 751 mmHg 33%
    02:00 +19°C° 0 mm 1 mps 751 mmHg 33%
    03:00 +18°C° 0 mm 1 mps 751 mmHg 33%
    04:00 +17°C° 0 mm 2 mps 751 mmHg 33%
    05:00 +17°C° 0 mm 2 mps 751 mmHg 33%
    06:00 +17°C° 0 mm 2 mps 752 mmHg 34%
    07:00 +19°C° 0 mm 1 mps 753 mmHg 35%
    08:00 +19°C° 0 mm 1 mps 754 mmHg 35%
    09:00 +20°C° 0 mm 2 mps 754 mmHg 32%
    10:00 +23°C° 0 mm 2 mps 754 mmHg 29%
    11:00 +24°C° 0 mm 2 mps 754 mmHg 26%
    12:00 +25°C° 0 mm 2 mps 753 mmHg 24%
    13:00 +26°C° 0 mm 2 mps 752 mmHg 23%
    14:00 +27°C° 0 mm 2 mps 752 mmHg 21%
    15:00 +26°C° 0 mm 2 mps 752 mmHg 24%
    16:00 +24°C° 0 mm 2 mps 751 mmHg 27%
    17:00 +23°C° 0 mm 1 mps 751 mmHg 29%
    18:00 +21°C° 0 mm 2 mps 752 mmHg 30%
    19:00 +20°C° 0 mm 2 mps 752 mmHg 31%
    20:00 +19°C° 0 mm 2 mps 753 mmHg 32%
    21:00 +19°C° 0 mm 2 mps 752 mmHg 33%
    22:00 +18°C° 0 mm 2 mps 752 mmHg 34%
    23:00 +18°C° 0 mm 2 mps 752 mmHg 35%
    Show more